Weather in Berdyshevo

Russia / Perm Krai     57°19′55″N   54°27′11″E
temp.,
°C
wind,
m/s
gust,
m/s
humid.,
%
clouds,
%
prec.,
mm/h
press.,
hPa
HPBL,
m
28 february, sun
sun2823:00−13e61093100 0.8 1005441
02:00−15ene5994100 0.3 1005332
05:00−16ene51094100 0.5 1005374
08:00−15ne5994100 0.3 1006415
11:00−14ne5992100 0.6 1006470
14:00−12ne5890100 0.2 1007583
17:00−12ne5890100 0.3 1009599
20:00−14nne599296 0.1 1011406
1 march, mon
mon123:00−18nne489581 0.1 1013176
02:00−20nne469716 0.0 1014121
05:00−21nne369715 0.0 1016110
08:00−22nne359853 0.0 1017101
11:00−18nne359334 0.0 1019226
14:00−13n228558 0.0 1018409
17:00−13nnw128879 0.0 1018370
20:00−18ssw129633 0.0 101720
2 march, tue
tue223:00−19ssw339930 0.0 101646
02:00−19ssw489997 0.0 1014178
05:00−19ssw5119598 0.1 1011272
08:00−18s51195100 0.0 1008356
11:00−15s61194100 0.5 1006423
14:00−12s61193100 0.8 1003532
17:00−10s51093100 1.5 1002596
20:00−11s51094100 0.7 1000504
3 march, wed
wed323:00−10s4995100 1.4 999414
02:00−9sse3795100 0.9 998321
05:00−10se2496100 1.6 998148
08:00−10ene1197100 0.6 99721
11:00−8nnw1292100 0.7 998230
14:00−5nw2490100 0.0 998415
17:00−4nw4788100 0.2 999723
20:00−7nnw399298 0.1 1000254
4 march, thu
thu423:00−9nw3109597 0.1 1002275
02:00−12nw379461 0.0 1003132
05:00−12wnw379571 0.1 1004183
08:00−14wnw489596 0.1 1005182
11:00−11w469375 0.1 1005288
14:00−7wsw479099 0.0 1005572
17:00−6sw6989100 0.1 1003723
20:00−7ssw71494100 0.4 1000744